When you browse on this site, cookies collect data to enhance your experience and personalize the content and advertising you see.
Visit our Privacy Policy to learn more. By continuing to use the site, you agree to this use of cookies and data.

Hourly Weather Caracas

Today, 26 September, Saturday

Time Temperature Precipitation Wind Pressure Humidity
00:00 +18°C° 0 mm 2 mps 650 mmHg 92%
01:00 +17°C° 0 mm 2 mps 649 mmHg 92%
02:00 +18°C° 0 mm 1 mps 649 mmHg 89%
03:00 +17°C° 0 mm 2 mps 649 mmHg 88%
04:00 +16°C° 0 mm 2 mps 649 mmHg 86%
05:00 +16°C° 0 mm 2 mps 649 mmHg 85%
06:00 +17°C° 0 mm 2 mps 649 mmHg 82%
07:00 +20°C° 0 mm 1 mps 650 mmHg 78%
08:00 +21°C° 0 mm 1 mps 650 mmHg 75%
09:00 +23°C° 0 mm 2 mps 651 mmHg 68%
10:00 +24°C° 0 mm 2 mps 652 mmHg 61%
11:00 +26°C° 0 mm 2 mps 652 mmHg 54%
12:00 +26°C° 0.4 mm 2 mps 651 mmHg 58%
13:00 +26°C° 0.4 mm 2 mps 651 mmHg 62%
14:00 +26°C° 0.4 mm 2 mps 650 mmHg 66%
15:00 +25°C° 0.3 mm 2 mps 649 mmHg 70%
16:00 +24°C° 0.3 mm 2 mps 648 mmHg 75%
17:00 +23°C° 0.3 mm 2 mps 648 mmHg 79%
18:00 +21°C° 0 mm 2 mps 648 mmHg 83%
19:00 +20°C° 0 mm 1 mps 648 mmHg 86%
20:00 +19°C° 0 mm 1 mps 648 mmHg 89%
21:00 +19°C° 0 mm 1 mps 648 mmHg 89%
22:00 +19°C° 0 mm 1 mps 648 mmHg 89%
23:00 +18°C° 0 mm 1 mps 648 mmHg 89%

Tomorrow, 27 September, Sunday

Time Temperature Precipitation Wind Pressure Humidity
00:00 +18°C° 0 mm 1 mps 648 mmHg 88%
01:00 +18°C° 0 mm 1 mps 648 mmHg 88%
02:00 +18°C° 0 mm 1 mps 647 mmHg 88%
03:00 +18°C° 0 mm 1 mps 647 mmHg 88%
04:00 +16°C° 0 mm 1 mps 647 mmHg 88%
05:00 +16°C° 0 mm 1 mps 647 mmHg 87%
06:00 +19°C° 0 mm 1 mps 647 mmHg 85%
07:00 +20°C° 0 mm 1 mps 648 mmHg 82%
08:00 +21°C° 0 mm 1 mps 648 mmHg 80%
09:00 +23°C° 0 mm 1 mps 649 mmHg 73%
10:00 +25°C° 0 mm 1 mps 650 mmHg 67%
11:00 +27°C° 0 mm 1 mps 650 mmHg 61%
12:00 +26°C° 0.7 mm 1 mps 649 mmHg 66%
13:00 +25°C° 0.7 mm 1 mps 649 mmHg 72%
14:00 +25°C° 0.7 mm 1 mps 648 mmHg 78%
15:00 +24°C° 0.4 mm 1 mps 647 mmHg 80%
16:00 +24°C° 0.4 mm 1 mps 647 mmHg 82%
17:00 +23°C° 0.4 mm 1 mps 646 mmHg 84%
18:00 +22°C° 0.1 mm 1 mps 647 mmHg 87%
19:00 +21°C° 0.1 mm 1 mps 647 mmHg 90%
20:00 +20°C° 0.1 mm 1 mps 647 mmHg 93%
21:00 +20°C° 0.1 mm 1 mps 647 mmHg 93%
22:00 +19°C° 0.1 mm 1 mps 647 mmHg 93%
23:00 +19°C° 0.1 mm 1 mps 647 mmHg 93%

Day after tomorrow, 28 September, Monday

Time Temperature Precipitation Wind Pressure Humidity
00:00 +19°C° 0 mm 1 mps 647 mmHg 92%
01:00 +18°C° 0 mm 1 mps 647 mmHg 92%
02:00 +18°C° 0 mm 1 mps 646 mmHg 91%
03:00 +18°C° 0 mm 1 mps 646 mmHg 91%
04:00 +18°C° 0 mm 1 mps 646 mmHg 91%
05:00 +16°C° 0 mm 1 mps 645 mmHg 91%
06:00 +19°C° 0 mm 1 mps 646 mmHg 88%
07:00 +20°C° 0 mm 1 mps 647 mmHg 86%
08:00 +21°C° 0 mm 1 mps 648 mmHg 83%
09:00 +23°C° 0 mm 1 mps 648 mmHg 75%
10:00 +24°C° 0 mm 1 mps 649 mmHg 67%
11:00 +26°C° 0 mm 2 mps 650 mmHg 60%
12:00 +26°C° 0.4 mm 2 mps 649 mmHg 61%
13:00 +26°C° 0.4 mm 2 mps 649 mmHg 62%
14:00 +26°C° 0.4 mm 2 mps 648 mmHg 64%
15:00 +25°C° 1 mm 2 mps 647 mmHg 72%
16:00 +24°C° 1 mm 2 mps 647 mmHg 81%
17:00 +21°C° 1 mm 2 mps 646 mmHg 89%
18:00 +21°C° 0.8 mm 2 mps 647 mmHg 91%
19:00 +20°C° 0.8 mm 2 mps 647 mmHg 93%
20:00 +19°C° 0.8 mm 2 mps 647 mmHg 94%
21:00 +19°C° 0.5 mm 2 mps 647 mmHg 94%
22:00 +19°C° 0.5 mm 2 mps 647 mmHg 93%
23:00 +18°C° 0.5 mm 2 mps 647 mmHg 93%

29 September, Tuesday

Time Temperature Precipitation Wind Pressure Humidity
00:00 +18°C° 0 mm 2 mps 647 mmHg 92%
01:00 +18°C° 0 mm 2 mps 647 mmHg 90%
02:00 +17°C° 0 mm 2 mps 646 mmHg 89%
03:00 +17°C° 0.3 mm 2 mps 647 mmHg 90%
04:00 +17°C° 0.3 mm 2 mps 647 mmHg 90%
05:00 +17°C° 0.3 mm 2 mps 647 mmHg 91%
06:00 +18°C° 0.1 mm 2 mps 647 mmHg 90%
07:00 +20°C° 0.1 mm 1 mps 648 mmHg 89%
08:00 +20°C° 0.1 mm 1 mps 649 mmHg 88%
09:00 +21°C° 0.7 mm 1 mps 649 mmHg 86%
10:00 +22°C° 0.7 mm 1 mps 650 mmHg 83%
11:00 +23°C° 0.7 mm 1 mps 650 mmHg 81%
12:00 +23°C° 0.4 mm 1 mps 649 mmHg 79%
13:00 +24°C° 0.4 mm 2 mps 649 mmHg 77%
14:00 +24°C° 0.4 mm 2 mps 648 mmHg 75%
15:00 +23°C° 0.3 mm 2 mps 648 mmHg 78%
16:00 +23°C° 0.3 mm 1 mps 648 mmHg 80%
17:00 +22°C° 0.3 mm 1 mps 647 mmHg 83%
18:00 +21°C° 0.1 mm 1 mps 647 mmHg 84%
19:00 +20°C° 0.1 mm 1 mps 648 mmHg 85%
20:00 +18°C° 0.1 mm 2 mps 648 mmHg 86%
21:00 +19°C° 0 mm 1 mps 648 mmHg 87%
22:00 +19°C° 0 mm 1 mps 648 mmHg 87%
23:00 +19°C° 0 mm 1 mps 648 mmHg 87%

30 September, Wednesday

Time Temperature Precipitation Wind Pressure Humidity
00:00 +19°C° 0 mm 1 mps 648 mmHg 87%
01:00 +19°C° 0 mm 1 mps 648 mmHg 86%
02:00 +19°C° 0 mm 1 mps 647 mmHg 86%
03:00 +18°C° 0 mm 1 mps 647 mmHg 85%
04:00 +18°C° 0 mm 1 mps 647 mmHg 84%
05:00 +17°C° 0 mm 2 mps 647 mmHg 83%
06:00 +18°C° 0 mm 2 mps 648 mmHg 82%
07:00 +19°C° 0 mm 2 mps 649 mmHg 81%
08:00 +20°C° 0 mm 2 mps 649 mmHg 79%
09:00 +23°C° 0 mm 2 mps 650 mmHg 71%
10:00 +25°C° 0 mm 2 mps 651 mmHg 63%
11:00 +26°C° 0 mm 3 mps 651 mmHg 54%
12:00 +26°C° 0.3 mm 3 mps 651 mmHg 57%
13:00 +26°C° 0.3 mm 3 mps 650 mmHg 60%
14:00 +26°C° 0.3 mm 3 mps 649 mmHg 63%
15:00 +25°C° 1.3 mm 3 mps 649 mmHg 71%
16:00 +24°C° 1.3 mm 3 mps 648 mmHg 78%
17:00 +23°C° 1.3 mm 2 mps 648 mmHg 86%
18:00 +21°C° 0.3 mm 2 mps 648 mmHg 88%
19:00 +19°C° 0.3 mm 2 mps 648 mmHg 90%
20:00 +18°C° 0.3 mm 2 mps 648 mmHg 92%
21:00 +18°C° 0.2 mm 2 mps 648 mmHg 92%
22:00 +18°C° 0.2 mm 2 mps 648 mmHg 92%
23:00 +17°C° 0.2 mm 2 mps 648 mmHg 92%

1 October, Thursday

Time Temperature Precipitation Wind Pressure Humidity
00:00 +17°C° 0 mm 2 mps 648 mmHg 92%
01:00 +17°C° 0 mm 2 mps 647 mmHg 92%
02:00 +17°C° 0 mm 2 mps 647 mmHg 91%
03:00 +17°C° 0 mm 2 mps 647 mmHg 91%
04:00 +17°C° 0 mm 2 mps 647 mmHg 91%
05:00 +17°C° 0 mm 2 mps 647 mmHg 91%
06:00 +18°C° 0 mm 2 mps 648 mmHg 89%
07:00 +19°C° 0 mm 2 mps 648 mmHg 87%
08:00 +20°C° 0 mm 2 mps 649 mmHg 85%
09:00 +23°C° 0.1 mm 2 mps 649 mmHg 77%
10:00 +24°C° 0.1 mm 2 mps 650 mmHg 69%
11:00 +26°C° 0.1 mm 2 mps 650 mmHg 61%
12:00 +26°C° 0.8 mm 2 mps 649 mmHg 67%
13:00 +25°C° 0.8 mm 3 mps 648 mmHg 74%
14:00 +24°C° 0.8 mm 3 mps 647 mmHg 80%
15:00 +24°C° 1.3 mm 2 mps 647 mmHg 83%
16:00 +23°C° 1.3 mm 2 mps 647 mmHg 85%
17:00 +23°C° 1.3 mm 2 mps 646 mmHg 88%
18:00 +20°C° 1.1 mm 2 mps 647 mmHg 89%
19:00 +19°C° 1.1 mm 3 mps 647 mmHg 91%
20:00 +18°C° 1.1 mm 3 mps 647 mmHg 92%
21:00 +18°C° 0.3 mm 3 mps 647 mmHg 92%
22:00 +18°C° 0.3 mm 3 mps 647 mmHg 91%
23:00 +17°C° 0.3 mm 2 mps 647 mmHg 91%
Show more